Location: *
(34.0486°S, 61.7880°E)
Time: 13:52:12
(UTC+00:00)

USA 215 - Pass Details

Date: 01 April 2020
Orbit: 1098 x 1110 km, 123.0° (Epoch: 01 June)

Event Time Altitude Azimuth Distance (km) Brightness Sun altitude
Exits shadow 16:05:50 22° 152° (SSE) 2,249 4.7 -29.3°
Maximum altitude 16:10:10 55° 221° (SW) 1,320 3.8 -30.2°
Drops below altitude 10° 16:16:31 10° 296° (WNW) 2,966 6.0 -31.4°
Sets 16:19:03 0° 300° (WNW) 3,917 6.7 -31.9°
